Tracking 31011 objects as of 12-Jul-2025
HD Live streaming from Space Station
objects crossing your sky now

GORIZONT 32

Track GORIZONT 32 now!
GORIZONT 32 is classified as:


NORAD ID: 23880
Int'l Code: 1996-034A
Perigee: 35,799.0 km
Apogee: 35,859.0 km
Inclination: 14.4 °
Period: 1,437.9 minutes
Semi major axis: 42199 km
RCS: 17.7827 m2 (large)
Launch date: May 25, 1996
Source: Commonwealth of Independent States (former USSR) (CIS)
Launch site: TYURATAM MISSILE AND SPACE COMPLEX (TTMTR)

Telecommunications; augment television channels available to the people of Siberia.
Your satellite tracking list
Your tracking list is empty




NASA's NSSDC Master Catalog

Two Line Element Set (TLE):
1 23880U 96034A   25193.53649884  .00000007  00000-0  00000-0 0  9997
2 23880  14.4064 357.5448 0007117 356.1497   9.1691  1.00146154106633
Source of the keplerian elements: AFSPC